WGS F9 (USA 275)

Last updated on Thu Oct 23 2025 00:02:56 GMT+0000 (Coordinated Universal Time)

1 42075U 17016A 25295.33315610 .00000000 00000+0 00000+0 0 9996 2 42075 0.0208 239.6072 0000154 292.6894 326.6214 1.00269592 31517
UTC large
Height (km)
Speed (km/s)
/
Latitude / Longitude
Inclination (degrees)
Orbital Period (minutes)
Azimuth
Elevation
Range (km)
Doppler Factor

Next 0 passes for location: London (51.5072 / 0.1276)

Sorry there are no passes over London.